Time,TemperatureF,DewpointF,PressureIn,WindDirection,WindDirectionDegrees,WindSpeedMPH,WindSpeedGustMPH,Humidity,HourlyPrecipIn,Conditions,Clouds,dailyrainin,SoftwareType,DateUTC
2013-04-01 00:08:00,47.4,46.0,29.88,ESE,110,0.0,0.0,95,0.03,,,0.37,weatherlink.com 1.10,2013-04-01 04:08:00,
2013-04-01 00:23:00,47.0,46.0,29.88,ESE,110,0.0,0.0,95,0.03,,,0.38,weatherlink.com 1.10,2013-04-01 04:23:00,
2013-04-01 00:38:00,46.7,45.0,29.88,ESE,110,0.0,0.0,95,0.03,,,0.38,weatherlink.com 1.10,2013-04-01 04:38:00,
2013-04-01 00:53:00,46.6,45.0,29.88,ESE,110,0.0,0.0,95,0.03,,,0.39,weatherlink.com 1.10,2013-04-01 04:53:00,
2013-04-01 01:08:00,46.4,45.0,29.88,ESE,110,0.0,0.0,95,0.02,,,0.39,weatherlink.com 1.10,2013-04-01 05:08:00,
2013-04-01 01:23:00,46.5,45.0,29.88,ESE,110,0.0,0.0,95,0.02,,,0.40,weatherlink.com 1.10,2013-04-01 05:23:00,
2013-04-01 01:38:00,46.2,45.0,29.88,ESE,110,0.0,1.0,95,0.02,,,0.40,weatherlink.com 1.10,2013-04-01 05:38:00,
2013-04-01 01:53:00,45.7,44.0,29.88,ESE,110,0.0,2.0,94,0.01,,,0.40,weatherlink.com 1.10,2013-04-01 05:53:00,
2013-04-01 02:08:00,45.2,43.0,29.88,ESE,110,2.0,3.0,93,0.02,,,0.01,weatherlink.com 1.10,2013-04-01 06:08:00,
2013-04-01 02:23:00,44.7,43.0,29.88,ESE,109,0.0,2.0,93,0.01,,,0.01,weatherlink.com 1.10,2013-04-01 06:23:00,
2013-04-01 02:38:00,44.3,42.0,29.88,ESE,109,0.0,2.0,93,0.01,,,0.01,weatherlink.com 1.10,2013-04-01 06:38:00,
2013-04-01 02:53:00,43.9,42.0,29.88,ESE,104,1.0,2.0,94,0.01,,,0.01,weatherlink.com 1.10,2013-04-01 06:53:00,
2013-04-01 03:08:00,44.0,42.0,29.88,ESE,104,0.0,1.0,94,0.00,,,0.01,weatherlink.com 1.10,2013-04-01 07:08:00,
2013-04-01 03:23:00,43.7,42.0,29.87,NE,56,0.0,3.0,94,0.00,,,0.01,weatherlink.com 1.10,2013-04-01 07:23:00,
2013-04-01 03:38:00,43.4,42.0,29.87,East,92,0.0,3.0,94,0.00,,,0.01,weatherlink.com 1.10,2013-04-01 07:38:00,
2013-04-01 03:53:00,42.9,41.0,29.88,East,92,0.0,1.0,94,0.00,,,0.01,weatherlink.com 1.10,2013-04-01 07:53:00,
2013-04-01 04:08:00,43.1,42.0,29.87,East,92,2.0,2.0,95,0.00,,,0.01,weatherlink.com 1.10,2013-04-01 08:08:00,
2013-04-01 04:23:00,42.3,41.0,29.87,East,92,0.0,2.0,93,0.00,,,0.01,weatherlink.com 1.10,2013-04-01 08:23:00,
2013-04-01 04:38:00,41.2,39.0,29.88,East,92,0.0,1.0,93,0.00,,,0.01,weatherlink.com 1.10,2013-04-01 08:38:00,
2013-04-01 04:53:00,40.8,39.0,29.88,East,92,0.0,1.0,94,0.00,,,0.01,weatherlink.com 1.10,2013-04-01 08:53:00,
2013-04-01 05:08:00,41.4,40.0,29.88,East,83,1.0,2.0,96,0.00,,,0.01,weatherlink.com 1.10,2013-04-01 09:08:00,
2013-04-01 05:23:00,42.2,41.0,29.88,East,81,0.0,2.0,96,0.00,,,0.01,weatherlink.com 1.10,2013-04-01 09:23:00,
2013-04-01 05:38:00,41.1,40.0,29.89,East,81,0.0,1.0,94,0.00,,,0.01,weatherlink.com 1.10,2013-04-01 09:38:00,
2013-04-01 05:54:00,39.8,38.0,29.89,East,81,0.0,0.0,94,0.00,,,0.01,weatherlink.com 1.10,2013-04-01 09:54:00,
2013-04-01 06:09:00,39.0,38.0,29.90,East,81,0.0,1.0,94,0.00,,,0.01,weatherlink.com 1.10,2013-04-01 10:09:00,
2013-04-01 06:24:00,38.2,37.0,29.90,East,81,0.0,0.0,94,0.00,,,0.01,weatherlink.com 1.10,2013-04-01 10:24:00,
2013-04-01 06:39:00,37.1,36.0,29.90,East,81,0.0,0.0,94,0.00,,,0.01,weatherlink.com 1.10,2013-04-01 10:39:00,
2013-04-01 06:54:00,36.6,35.0,29.91,East,81,0.0,0.0,95,0.00,,,0.01,weatherlink.com 1.10,2013-04-01 10:54:00,
2013-04-01 07:09:00,35.9,34.0,29.91,East,81,0.0,0.0,94,0.00,,,0.01,weatherlink.com 1.10,2013-04-01 11:09:00,
2013-04-01 07:24:00,35.6,34.0,29.92,East,81,0.0,0.0,95,0.00,,,0.01,weatherlink.com 1.10,2013-04-01 11:24:00,
2013-04-01 07:39:00,35.2,34.0,29.92,East,81,0.0,0.0,95,0.00,,,0.01,weatherlink.com 1.10,2013-04-01 11:39:00,
2013-04-01 07:54:00,35.1,34.0,29.93,East,81,0.0,0.0,95,0.00,,,0.01,weatherlink.com 1.10,2013-04-01 11:54:00,
2013-04-01 08:09:00,35.6,35.0,29.93,East,81,0.0,2.0,96,0.00,,,0.01,weatherlink.com 1.10,2013-04-01 12:09:00,
2013-04-01 08:24:00,36.4,35.0,29.93,East,81,0.0,0.0,96,0.00,,,0.01,weatherlink.com 1.10,2013-04-01 12:24:00,
2013-04-01 08:39:00,37.9,37.0,29.93,East,81,0.0,1.0,96,0.00,,,0.01,weatherlink.com 1.10,2013-04-01 12:39:00,
2013-04-01 08:54:00,40.2,39.0,29.94,East,81,0.0,0.0,97,0.00,,,0.01,weatherlink.com 1.10,2013-04-01 12:54:00,
2013-04-01 09:09:00,42.2,41.0,29.94,ESE,123,1.0,2.0,97,0.00,,,0.01,weatherlink.com 1.10,2013-04-01 13:09:00,
2013-04-01 09:24:00,43.5,43.0,29.94,South,169,0.0,2.0,97,0.00,,,0.01,weatherlink.com 1.10,2013-04-01 13:24:00,
2013-04-01 09:39:00,44.2,43.0,29.94,WSW,241,2.0,3.0,96,0.00,,,0.01,weatherlink.com 1.10,2013-04-01 13:39:00,
2013-04-01 09:54:00,46.2,44.0,29.94,WSW,241,0.0,2.0,93,0.00,,,0.01,weatherlink.com 1.10,2013-04-01 13:54:00,
2013-04-01 10:09:00,49.2,45.0,29.94,ESE,108,0.0,5.0,85,0.00,,,0.01,weatherlink.com 1.10,2013-04-01 14:09:00,
2013-04-01 10:24:00,50.3,44.0,29.94,East,81,5.0,7.0,78,0.00,,,0.01,weatherlink.com 1.10,2013-04-01 14:24:00,
2013-04-01 10:39:00,50.8,44.0,29.93,SE,128,1.0,8.0,76,0.00,,,0.01,weatherlink.com 1.10,2013-04-01 14:39:00,
2013-04-01 10:54:00,51.4,43.0,29.94,East,80,5.0,10.0,73,0.00,,,0.01,weatherlink.com 1.10,2013-04-01 14:54:00,
2013-04-01 11:09:00,51.3,43.0,29.94,East,101,2.0,12.0,74,0.00,,,0.01,weatherlink.com 1.10,2013-04-01 15:09:00,
2013-04-01 11:24:00,51.0,43.0,29.94,ESE,109,3.0,13.0,74,0.00,,,0.01,weatherlink.com 1.10,2013-04-01 15:24:00,
2013-04-01 11:39:00,51.7,44.0,29.95,ESE,116,0.0,13.0,75,0.00,,,0.01,weatherlink.com 1.10,2013-04-01 15:39:00,
2013-04-01 11:54:00,52.1,43.0,29.94,SE,125,1.0,8.0,72,0.00,,,0.01,weatherlink.com 1.10,2013-04-01 15:54:00,
2013-04-01 12:09:00,52.2,41.0,29.94,ESE,113,3.0,8.0,67,0.00,,,0.01,weatherlink.com 1.10,2013-04-01 16:09:00,
2013-04-01 12:24:00,51.3,42.0,29.94,SE,126,0.0,8.0,71,0.00,,,0.01,weatherlink.com 1.10,2013-04-01 16:24:00,
2013-04-01 12:39:00,51.6,42.0,29.94,ESE,116,1.0,15.0,70,0.00,,,0.01,weatherlink.com 1.10,2013-04-01 16:39:00,
2013-04-01 12:54:00,51.6,41.0,29.94,ESE,104,7.0,15.0,68,0.00,,,0.01,weatherlink.com 1.10,2013-04-01 16:54:00,
2013-04-01 13:09:00,52.1,41.0,29.93,ENE,74,2.0,11.0,67,0.00,,,0.01,weatherlink.com 1.10,2013-04-01 17:09:00,
2013-04-01 13:24:00,53.1,41.0,29.93,NE,53,2.0,10.0,63,0.00,,,0.01,weatherlink.com 1.10,2013-04-01 17:24:00,
2013-04-01 13:39:00,52.6,40.0,29.93,ESE,110,9.0,11.0,63,0.00,,,0.01,weatherlink.com 1.10,2013-04-01 17:39:00,
2013-04-01 13:54:00,51.8,40.0,29.92,East,87,2.0,11.0,64,0.00,,,0.01,weatherlink.com 1.10,2013-04-01 17:54:00,
2013-04-01 14:09:00,51.8,41.0,29.93,ENE,76,9.0,13.0,66,0.00,,,0.01,weatherlink.com 1.10,2013-04-01 18:09:00,
2013-04-01 14:24:00,51.4,43.0,29.92,ESE,114,1.0,8.0,72,0.00,,,0.01,weatherlink.com 1.10,2013-04-01 18:24:00,
2013-04-01 14:39:00,52.6,43.0,29.92,ESE,113,3.0,11.0,71,0.00,,,0.01,weatherlink.com 1.10,2013-04-01 18:39:00,
2013-04-01 14:54:00,51.4,43.0,29.91,ENE,65,10.0,10.0,72,0.00,,,0.01,weatherlink.com 1.10,2013-04-01 18:54:00,
2013-04-01 15:09:00,52.4,43.0,29.91,East,98,7.0,13.0,70,0.00,,,0.01,weatherlink.com 1.10,2013-04-01 19:09:00,
2013-04-01 15:25:00,51.4,43.0,29.91,East,97,8.0,10.0,72,0.00,,,0.01,weatherlink.com 1.10,2013-04-01 19:25:00,
2013-04-01 15:40:00,52.8,43.0,29.91,SE,131,4.0,10.0,69,0.00,,,0.01,weatherlink.com 1.10,2013-04-01 19:40:00,
2013-04-01 15:55:00,50.8,43.0,29.91,ENE,69,4.0,10.0,75,0.00,,,0.01,weatherlink.com 1.10,2013-04-01 19:55:00,
2013-04-01 16:10:00,51.7,43.0,29.91,ESE,111,1.0,10.0,73,0.00,,,0.01,weatherlink.com 1.10,2013-04-01 20:10:00,
2013-04-01 16:25:00,52.0,43.0,29.91,ESE,122,1.0,10.0,71,0.00,,,0.01,weatherlink.com 1.10,2013-04-01 20:25:00,
2013-04-01 16:40:00,51.4,42.0,29.91,ESE,105,2.0,11.0,70,0.00,,,0.01,weatherlink.com 1.10,2013-04-01 20:40:00,
2013-04-01 16:55:00,51.1,42.0,29.91,East,92,8.0,16.0,70,0.00,,,0.01,weatherlink.com 1.10,2013-04-01 20:55:00,
2013-04-01 17:10:00,51.3,41.0,29.91,NE,38,6.0,12.0,67,0.00,,,0.01,weatherlink.com 1.10,2013-04-01 21:10:00,
2013-04-01 17:25:00,51.8,39.0,29.91,NE,38,7.0,11.0,63,0.00,,,0.01,weatherlink.com 1.10,2013-04-01 21:25:00,
2013-04-01 17:40:00,52.8,38.0,29.91,NNE,26,10.0,10.0,58,0.00,,,0.01,weatherlink.com 1.10,2013-04-01 21:40:00,
2013-04-01 17:55:00,52.6,39.0,29.91,ESE,114,3.0,14.0,60,0.00,,,0.01,weatherlink.com 1.10,2013-04-01 21:55:00,
2013-04-01 18:10:00,51.9,39.0,29.91,ESE,106,2.0,7.0,61,0.00,,,0.01,weatherlink.com 1.10,2013-04-01 22:10:00,
2013-04-01 18:25:00,51.5,38.0,29.92,ESE,111,5.0,9.0,61,0.00,,,0.01,weatherlink.com 1.10,2013-04-01 22:25:00,
2013-04-01 18:40:00,50.8,38.0,29.92,ESE,113,4.0,8.0,61,0.00,,,0.01,weatherlink.com 1.10,2013-04-01 22:40:00,
2013-04-01 18:55:00,50.4,36.0,29.92,ESE,115,0.0,5.0,59,0.00,,,0.01,weatherlink.com 1.10,2013-04-01 22:55:00,
2013-04-01 19:10:00,50.2,34.0,29.93,NE,40,5.0,12.0,55,0.00,,,0.01,weatherlink.com 1.10,2013-04-01 23:10:00,
2013-04-01 19:25:00,49.8,34.0,29.93,East,83,9.0,12.0,55,0.00,,,0.01,weatherlink.com 1.10,2013-04-01 23:25:00,
2013-04-01 19:55:00,48.6,35.0,29.94,ENE,73,2.0,7.0,59,0.00,,,0.01,weatherlink.com 1.10,2013-04-01 23:55:00,
2013-04-01 20:10:00,48.2,35.0,29.94,NE,38,0.0,6.0,60,0.00,,,0.01,weatherlink.com 1.10,2013-04-02 00:10:00,
2013-04-01 20:25:00,47.7,35.0,29.94,ENE,66,4.0,5.0,61,0.00,,,0.01,weatherlink.com 1.10,2013-04-02 00:25:00,
2013-04-01 20:40:00,47.2,35.0,29.94,NE,44,0.0,4.0,63,0.00,,,0.01,weatherlink.com 1.10,2013-04-02 00:40:00,
2013-04-01 20:55:00,47.0,34.0,29.94,North,355,1.0,4.0,62,0.00,,,0.01,weatherlink.com 1.10,2013-04-02 00:55:00,
2013-04-01 21:10:00,46.8,34.0,29.94,East,88,5.0,9.0,61,0.00,,,0.01,weatherlink.com 1.10,2013-04-02 01:10:00,
2013-04-01 21:25:00,46.7,33.0,29.95,East,86,1.0,8.0,59,0.00,,,0.01,weatherlink.com 1.10,2013-04-02 01:25:00,
2013-04-01 21:40:00,46.3,32.0,29.95,ENE,78,9.0,9.0,57,0.00,,,0.01,weatherlink.com 1.10,2013-04-02 01:40:00,
2013-04-01 21:55:00,46.4,31.0,29.96,ENE,72,9.0,11.0,56,0.00,,,0.01,weatherlink.com 1.10,2013-04-02 01:55:00,
2013-04-01 22:10:00,46.0,30.0,29.97,NE,42,3.0,12.0,55,0.00,,,0.01,weatherlink.com 1.10,2013-04-02 02:10:00,
2013-04-01 22:25:00,45.6,30.0,29.97,ENE,71,11.0,21.0,54,0.00,,,0.01,weatherlink.com 1.10,2013-04-02 02:25:00,
2013-04-01 22:40:00,45.3,30.0,29.97,ENE,63,0.0,7.0,56,0.00,,,0.01,weatherlink.com 1.10,2013-04-02 02:40:00,
2013-04-01 22:55:00,44.9,30.0,29.97,East,95,5.0,5.0,56,0.00,,,0.01,weatherlink.com 1.10,2013-04-02 02:55:00,
2013-04-01 23:10:00,44.6,30.0,29.98,East,98,2.0,5.0,58,0.00,,,0.01,weatherlink.com 1.10,2013-04-02 03:10:00,
2013-04-01 23:25:00,44.3,31.0,29.98,ENE,57,2.0,9.0,59,0.00,,,0.01,weatherlink.com 1.10,2013-04-02 03:25:00,
2013-04-01 23:40:00,43.8,31.0,29.99,East,91,3.0,9.0,61,0.00,,,0.01,weatherlink.com 1.10,2013-04-02 03:40:00,
2013-04-01 23:55:00,42.7,31.0,30.00,ESE,110,2.0,8.0,64,0.00,,,0.01,weatherlink.com 1.10,2013-04-02 03:55:00,